Regional Weather Roundup
Issued by NWS Upton, NY

Current Version | Previous Version | Graphics & Text | Print | Product List | Glossary Off
Versions: 1 2 3 4 5 6 7 8 9 10 11 12 13 14 15 16 17 18 19 20 21 22 23 24 25 26 27 28 29 30 31 32 33 34 35 36 37 38 39 40 41 42 43 44 45 46 47 48 49 50
000 ASUS41 KOKX 291008 RWROKX REGIONAL WEATHER ROUNDUP NATIONAL WEATHER SERVICE NEW YORK NY 600 AM EDT FRI MAY 29 2015 NOTE: "FAIR" INDICATES FEW OR NO CLOUDS BELOW 12,000 FEET WITH NO SIGNIFICANT WEATHER AND/OR OBSTRUCTIONS TO VISIBILITY. NYZ071-072-176-178-NJZ106-104-291100- NEW YORK CITY METRO AREA CITY SKY/WX TMP DP RH WIND PRES REMARKS CENTRAL PARK CLEAR 65 53 65 VRB5 30.30R LAGUARDIA APRT PTCLDY 65 53 65 NE6 30.27R KENNEDY INTL PTCLDY 64 53 67 N6 30.27R NEWARK/LIBERTY PTCLDY 64 54 69 N7 30.27R BRNX BOT. GARD N/A 63 54 72 NE1 30.30R TETERBORO CLEAR 62 54 74 N3 30.27R $$ NYZ177-179-078>081-291100- LONG ISLAND NEW YORK CITY SKY/WX TMP DP RH WIND PRES REMARKS FARMINGDALE CLEAR 60 55 83 NE7 30.27R ISLIP PTCLDY 61 54 77 N8 30.25R SHIRLEY CLEAR 59 54 83 N3 30.27R WESTHAMPTON CLEAR 59 55 87 N3 30.28R MONTAUK POINT N/A 58 55 90 CALM 30.28R $$ NYZ052-065-067-291100- HUDSON VALLEY CITY SKY/WX TMP DP RH WIND PRES REMARKS WHITE PLAINS CLEAR 60 54 80 N7 30.27R NEWBURGH CLEAR 55 54 94 VRB3 30.31R MONTGOMERY CLEAR 51 50 96 CALM 30.30R FOG POUGHKEEPSIE CLEAR 54 52 93 CALM 30.29R ALBANY PTCLDY 55 51 86 NW3 30.31R $$ NJZ001-105-106-008-010-013-015-019>022-104-291100- NEW JERSEY CITY SKY/WX TMP DP RH WIND PRES REMARKS NEWARK/LIBERTY PTCLDY 64 54 69 N7 30.27R TETERBORO CLEAR 62 54 74 N3 30.27R CALDWELL CLEAR 58 54 86 CALM 30.29R MORRISTOWN CLEAR 54 50 87 CALM 30.29R SOMERVILLE CLEAR 55 52 89 N3 30.27R SUSSEX CLEAR 50 48 93 CALM 30.32R ANDOVER N/A 53 52 96 CALM 30.30R TRENTON CLEAR 61 54 77 N5 30.27R MILLVILLE PTCLDY 67 56 67 NE8 30.26R ATLANTIC CITY CLEAR 63 57 81 N3 30.26R WRIGHTSTOWN CLEAR 59 57 93 CALM 30.25R TOMS RIVER CLEAR N/A N/A N/A CALM 30.27R BELMAR CLEAR 64 50 59 N3 30.27R $$ PAZ047>061-062-071-291100- EASTERN PENNSYLVANIA CITY SKY/WX TMP DP RH WIND PRES REMARKS PHILADELPHIA PTCLDY 66 55 67 E7 30.27R ALLENTOWN CLEAR 55 52 89 N3 30.29R SCRANTON CLEAR 55 50 83 E5 30.31R $$ CTZ002-004>006-009-010-012-RIZ004-006-007-MAZ004-011-015-291100- SOUTHERN NEW ENGLAND IN CT CITY SKY/WX TMP DP RH WIND PRES REMARKS BRADLEY INTL PTCLDY 56 53 90 N3 30.28R HARTFORD CLEAR 57 55 93 CALM 30.29R DANBURY CLEAR 53 50 89 CALM 30.30R WTRBRY/OXFORD CLEAR 57 50 77 NE7 30.31R BRIDGEPORT CLEAR 61 55 81 NE3 30.27R MERIDEN CLEAR 53 51 93 CALM 30.28R NEW HAVEN CLEAR 58 55 90 N6 30.27R CHESTER FAIR 59 55 88 NW5 30.28S FOG GROTON CLEAR 59 54 83 N6 30.26R WILLIMANTIC CLEAR 55 52 89 CALM 30.28R IN RI CITY SKY/WX TMP DP RH WIND PRES REMARKS PROVIDENCE PTCLDY 60 55 83 W3 30.27R BLOCK ISLAND CLEAR 57 54 88 N5 30.27R WESTERLY CLEAR 55 53 93 CALM 30.27R IN MA CITY SKY/WX TMP DP RH WIND PRES REMARKS BOSTON PTCLDY 64 56 75 NW8 30.26R WORCESTER CLEAR 61 53 75 N9 30.28R WESTFIELD CLEAR 53 51 93 CALM 30.29R PROVINCETOWN CLEAR 57 52 82 W3 30.26R NANTUCKET CLOUDY 60 57 89 SW3 30.26R $$ ANZ330-335-338-340-345-350-353-355-291100- COASTAL MARINE OBSERVATIONS STATION/POSITION TIME SKY/WX TEMP WIND PRES VSBY WAVE AIR SEA DIR/SP/G HT/PER (UTC) (F) (DEG/KT/KT) (MB) (MI) (FT/S) NY HARB ENTRANCE 0950 58 55 360/ 6/ 6 1024.4 2/ 8 4S FIRE IS 0903 57 N/A 3/ 8 20S FIRE ISLAND 0950 60 57 10/ 8/ 8 1024.2 3/ 8 GREAT SOUTH BAY 0930 64 67 20/ 10/ 10 N/A 23SW MTP 0950 57 54 350/ 8/ 8 1024.2 3/ 9 HUDSON CANYON NOT AVBL KINGS POINT 0900 62 58 50/ 1/ 3 1024.1 CENTRAL LI SOUND 0900 60 58 350/ 4/ 6 N/A EASTERN LI SOUND 0900 56 CALM / 2 N/A ROBBINS REEF 0900 67 10/ 10/ 12 1023.5 $$ >>>>>>>>>>>>>>>>>>>>>>>>>>>> KEY <<<<<<<<<<<<<<<<<<<<<<<<<<< > < > SKY/WX - SKY CONDITION/PRESENT WEATHER < > TMP - TEMPERATURE IN FAHRENHEIT < > DP - DEWPOINT IN FAHRENHEIT < > RH - RELATIVE HUMIDITY IN PERCENT < > WIND - DIRECTION AND SPEED IN MPH < > PRES - MEAN SEA LEVEL PRESSURE IN INCHES OF HG < > WCI - WIND CHILL INDEX < > VSB - VISIBILITY IN MILES < > HX - HEAT INDEX < > TC - TEMPERATURE IN CELSIUS < > VRB - VARIABLE WIND DIRECTION < > < >>>>>>>>>>>>>>>>>>>>>>>>>>>> KEY <<<<<<<<<<<<<<<<<<<<<<<<<<<

USA.gov is the U.S. government's official web portal to all federal, state and local government web resources and services.